Location: Prague
(50.0830°N, 14.4670°E)
Time: 09:13:39
(UTC+01:00)

XW-2F - Pass Details

Date: 04 December 2021
Orbit: 494 x 515 km, 97.5° (Epoch: 18 January)

Event Time Altitude Azimuth Distance (km) Brightness Sun altitude
Rises 06:26:38 0° 13° (NNE) 2,656 ? -11.7°
Reaches altitude 10° 06:28:45 10° 13° (NNE) 1,763 ? -11.3°
Maximum altitude 06:32:33 89° 279° (W) 526 ? -10.8°
Drops below altitude 10° 06:36:19 10° 195° (SSW) 1,743 ? -10.2°
Sets 06:38:24 0° 195° (SSW) 2,623 ? -9.9°
